Flag for Colombia Weather past 2 weeks in Medellin, Colombia

Now
57 °F

Passing clouds.


Feels Like: 57 °F
Forecast: 65 / 82 °F
Wind: No wind

Location: Rionegro / J. M. Cordova

Current Time: Mar 2, 2015 at 2:51:40 AM

Latest Report: Mar 2, 2015 at 2:00 AM


Visibility: 5 mi

Pressure: 30.32 "Hg

Humidity: 100%

Dew point: 57 °F

Location of MedellinLocation

Historic Weather in Medellin — Graph

°F

Medellin temperature yesterday

Maximum temperature yesterday: 72 °F (at 1:00 PM)
Minimum temperature yesterday: 57 °F (at 12:00 AM)
Average temperature yesterday: 63 °F

Past Weeks' High & Low Weather Summary

 TemperatureHumidityPressure
High88 °F (Feb 28, 12:00 PM)100% (Feb 16, 6:00 AM)30.36 "Hg (Feb 16, 6:00 AM)
Low34 °F (Feb 26, 11:00 PM)33% (Feb 28, 12:00 PM)30.15 "Hg (Feb 26, 8:00 AM)
Average63 °F79%30.27 "Hg
* Reported Feb 15 1:00 AM — Mar 2 1:00 AM, Medellin, Weather by CustomWeather, © 2015

Note: Actual official high and low records may vary slightly from our data, if they occured in-between our weather recording intervals... More about our weather records

Advertising

Medellin weather history for previous 24 hours

 ConditionsComfort  
Time TempWeatherWind HumidityBarometerVisibility
1:00 AM
Mon, Mar 2
57 °FPassing clouds.No wind100%30.32 "Hg5 mi
12:00 AM57 °FMostly cloudy.No wind100%30.35 "Hg5 mi
11:00 PM
Sun, Mar 1
57 °FMostly cloudy.No wind100%30.34 "Hg4 mi
10:00 PM57 °FDrizzle. Overcast.No wind100%30.33 "Hg4 mi
9:00 PM59 °FThunderstorms. Partly cloudy.5 mph88%30.33 "Hg4 mi
8:00 PM59 °FThunderstorms. Partly cloudy.9 mph94%30.28 "Hg2 mi
7:00 PM64 °FPassing clouds.5 mph88%30.23 "HgN/A
6:00 PM66 °FScattered clouds.9 mph73%30.23 "HgN/A
5:00 PM68 °FScattered clouds.9 mph69%30.22 "HgN/A
4:00 PM72 °FScattered clouds.12 mph57%30.21 "HgN/A
3:00 PM72 °FScattered clouds.22 mph57%30.22 "HgN/A
2:00 PM72 °FScattered clouds.12 mph57%30.25 "HgN/A
1:00 PM72 °FScattered clouds.14 mph57%30.26 "HgN/A
12:00 PM70 °FBroken clouds.9 mph60%30.30 "HgN/A
11:00 AM68 °FPartly sunny.6 mph64%30.33 "HgN/A
10:00 AM66 °FPartly sunny.2 mph68%30.35 "HgN/A
9:00 AM64 °FScattered clouds.No wind78%30.35 "HgN/A
8:00 AM61 °FScattered clouds.3 mph83%30.34 "Hg5 mi
7:00 AM57 °FSnow. Scattered clouds.No wind94%30.30 "HgN/A
6:00 AM57 °FPartly cloudy.No wind94%30.28 "Hg2 mi
5:00 AM57 °FFog.No wind94%30.27 "Hg4 mi
4:00 AM57 °FFog.No wind94%30.27 "HgN/A
3:00 AM57 °FFog.No wind94%30.27 "Hg4 mi
2:00 AM57 °FFog.No wind94%30.29 "Hg4 mi
Weather by CustomWeather, © 2015

See weather overviewHow to use our weather pages